Location: Unspecified
(40.7945°N, 0.0000°E)
Time: 14:24:10
(UTC+00:00)

Transit 2A Rocket - Visible Passes

Search period start: 23 January 2021 00:00
Search period end: 02 February 2021 00:00
Orbit: 592 x 910 km, 66.7° (Epoch: 22 January)

Date Brightness Start Highest point End Pass type
(mag) Time Alt. Az. Time Alt. Az. Time Alt. Az.
27 Jan 6.9 19:14:49 10° N 19:15:19 12° N 19:15:19 12° N visible
28 Jan 6.6 18:33:06 10° NNE 18:34:17 13° NNE 18:34:17 13° NNE visible
28 Jan 7.4 20:14:06 10° NNW 20:14:13 11° NNW 20:14:13 11° NNW visible
29 Jan 6.3 19:31:33 10° NNW 19:33:19 23° NNW 19:33:19 23° NNW visible
30 Jan 5.4 18:49:14 10° NNW 18:52:35 30° NE 18:52:35 30° NE visible
30 Jan 7.5 20:32:01 10° NW 20:32:32 12° WNW 20:32:32 12° WNW visible
31 Jan 6.0 18:07:11 10° N 18:10:18 19° NE 18:12:02 15° ENE visible
31 Jan 5.8 19:48:56 10° NW 19:52:01 37° WNW 19:52:01 37° WNW visible
01 Feb 4.3 19:06:13 10° NNW 19:10:33 89° NE 19:11:48 46° SSE visible
